Flag for Japan Weather past 2 weeks in Nagano, Japan

Now
39 °F

Overcast.


Feels Like: 32 °F
Forecast: 21 / 42 °F
Wind: 12 mph from Northeast

Location: Nagano

Current Time: Feb 27, 2015 at 3:54:42 PM

Latest Report: Feb 27, 2015 at 3:00 PM


Visibility: 13 mi

Pressure: 29.91 "Hg

Humidity: 58%

Dew point: 26 °F

Location of NaganoLocation

Historic Weather in Nagano — Graph

°F

Nagano temperature yesterday

Maximum temperature yesterday: 47 °F (at 1:00 PM)
Minimum temperature yesterday: 32 °F (at 6:00 AM)
Average temperature yesterday: 40 °F

Past Weeks' High & Low Weather Summary

 TemperatureHumidityPressure
High60 °F (Feb 22, 1:00 PM)96% (Feb 15, 6:00 AM)30.41 "Hg (Feb 15, 6:00 AM)
Low21 °F (Feb 16, 4:00 AM)41% (Feb 21, 1:00 PM)29.57 "Hg (Feb 12, 3:00 PM)
Average36 °F77%29.99 "Hg
* Reported Feb 12 2:00 PM — Feb 27 2:00 PM, Nagano, Weather by CustomWeather, © 2015

Note: Actual official high and low records may vary slightly from our data, if they occured in-between our weather recording intervals... More about our weather records

Advertising

Nagano weather history for previous 24 hours

 ConditionsComfort  
Time TempWeatherWind HumidityBarometerVisibility
2:00 PM
Fri, Feb 27
39 °FChilly.9 mph58%29.89 "HgN/A
1:00 PM42 °FQuite cool.7 mph42%29.88 "HgN/A
10:00 AM40 °FChilly.3 mph67%29.87 "HgN/A
9:00 AM37 °FOvercast.2 mph83%29.87 "Hg6 mi
8:00 AM35 °FChilly.3 mph90%29.86 "HgN/A
7:00 AM35 °FChilly.6 mph89%29.84 "HgN/A
6:00 AM36 °FChilly.5 mph88%29.81 "HgN/A
5:00 AM36 °FChilly.5 mph86%29.80 "HgN/A
4:00 AM37 °FChilly.10 mph85%29.79 "HgN/A
3:00 AM38 °FOvercast.3 mph93%29.79 "Hg9 mi
2:00 AM37 °FChilly.3 mph94%29.78 "HgN/A
1:00 AM38 °FChilly.2 mph95%29.79 "HgN/A
12:00 AM39 °FChilly.2 mph93%29.79 "HgN/A
11:00 PM
Thu, Feb 26
40 °FQuite cool.1 mph87%29.81 "HgN/A
10:00 PM40 °FQuite cool.5 mph88%29.84 "HgN/A
9:00 PM41 °FOvercast.2 mph86%29.82 "Hg9 mi
8:00 PM43 °FQuite cool.6 mph79%29.84 "HgN/A
7:00 PM45 °FQuite cool.3 mph72%29.85 "HgN/A
6:00 PM44 °FQuite cool.17 mph72%29.85 "HgN/A
5:00 PM44 °FQuite cool.8 mph76%29.89 "HgN/A
4:00 PM43 °FQuite cool.10 mph79%29.93 "HgN/A
3:00 PM45 °FLight rain. Overcast.12 mph74%29.93 "Hg9 mi
Weather by CustomWeather, © 2015

See weather overviewHow to use our weather pages